Time,TemperatureF,DewpointF,PressureIn,WindDirection,WindDirectionDegrees,WindSpeedMPH,WindSpeedGustMPH,Humidity,HourlyPrecipIn,Conditions,Clouds,dailyrainin,SoftwareType,DateUTC
2013-03-27 00:00:00,25.7,20.1,30.16,West,277,1.0,13.0,79,0.00,,,0.00,VWS V12.07,2013-03-27 04:00:00,
2013-03-27 00:10:00,25.7,20.1,30.16,WNW,295,3.0,7.0,79,0.00,,,0.00,VWS V12.07,2013-03-27 04:10:00,
2013-03-27 00:20:00,25.7,20.1,30.17,WNW,301,5.0,14.0,79,0.00,,,0.00,VWS V12.07,2013-03-27 04:20:00,
2013-03-27 00:30:00,25.7,20.4,30.17,West,261,11.0,13.0,80,0.00,,,0.00,VWS V12.07,2013-03-27 04:30:00,
2013-03-27 00:40:00,25.6,19.7,30.17,WNW,288,7.0,15.0,78,0.00,,,0.00,VWS V12.07,2013-03-27 04:40:00,
2013-03-27 00:50:00,25.6,19.7,30.16,NNW,337,1.0,14.0,78,0.00,,,0.00,VWS V12.07,2013-03-27 04:50:00,
2013-03-27 01:00:00,25.6,20.0,30.15,NW,306,6.0,17.0,79,0.00,,,0.00,VWS V12.07,2013-03-27 05:00:00,
2013-03-27 01:10:00,25.3,20.3,30.15,NW,311,4.0,16.0,81,0.00,,,0.00,VWS V12.07,2013-03-27 05:10:00,
2013-03-27 01:20:00,25.3,20.0,30.15,WNW,290,12.0,17.0,80,0.00,,,0.00,VWS V12.07,2013-03-27 05:20:00,
2013-03-27 01:30:00,25.4,19.8,30.15,WNW,292,3.0,20.0,79,0.00,,,0.00,VWS V12.07,2013-03-27 05:30:00,
2013-03-27 01:40:00,25.4,19.5,30.15,NNW,346,9.0,14.0,78,0.00,,,0.00,VWS V12.07,2013-03-27 05:40:00,
2013-03-27 01:50:00,25.4,19.5,30.15,North,10,7.0,15.0,78,0.00,,,0.00,VWS V12.07,2013-03-27 05:50:00,
2013-03-27 02:00:00,25.4,19.5,30.15,NW,308,9.0,25.0,78,0.00,,,0.00,VWS V12.07,2013-03-27 06:00:00,
2013-03-27 02:10:00,25.3,19.7,30.15,WNW,288,12.0,16.0,79,0.00,,,0.00,VWS V12.07,2013-03-27 06:10:00,
2013-03-27 02:20:00,25.1,19.5,30.15,NNW,329,6.0,18.0,79,0.00,,,0.00,VWS V12.07,2013-03-27 06:20:00,
2013-03-27 02:30:00,25.1,19.8,30.14,WNW,289,5.0,15.0,80,0.00,,,0.00,VWS V12.07,2013-03-27 06:30:00,
2013-03-27 02:40:00,25.0,20.0,30.14,NW,311,6.0,15.0,81,0.00,,,0.00,VWS V12.07,2013-03-27 06:40:00,
2013-03-27 02:50:00,25.0,20.0,30.14,NNW,338,4.0,15.0,81,0.00,,,0.00,VWS V12.07,2013-03-27 06:50:00,
2013-03-27 03:00:00,25.0,19.4,30.14,West,266,10.0,19.0,79,0.00,,,0.00,VWS V12.07,2013-03-27 07:00:00,
2013-03-27 03:10:00,25.1,19.2,30.14,NW,306,3.0,20.0,78,0.00,,,0.00,VWS V12.07,2013-03-27 07:10:00,
2013-03-27 03:20:00,24.8,19.2,30.14,NW,306,10.0,20.0,79,0.00,,,0.00,VWS V12.07,2013-03-27 07:20:00,
2013-03-27 03:30:00,24.8,18.6,30.14,West,269,2.0,19.0,77,0.00,,,0.00,VWS V12.07,2013-03-27 07:30:00,
2013-03-27 03:40:00,24.8,18.0,30.14,WNW,302,15.0,19.0,75,0.00,,,0.00,VWS V12.07,2013-03-27 07:40:00,
2013-03-27 03:50:00,24.7,17.6,30.15,WSW,242,4.0,21.0,74,0.00,,,0.00,VWS V12.07,2013-03-27 07:50:00,
2013-03-27 04:00:00,24.5,17.4,30.15,WSW,252,8.0,15.0,74,0.00,,,0.00,VWS V12.07,2013-03-27 08:00:00,
2013-03-27 04:10:00,24.4,17.0,30.15,NW,313,9.0,15.0,73,0.00,,,0.00,VWS V12.07,2013-03-27 08:10:00,
2013-03-27 04:20:00,24.2,16.5,30.16,West,265,12.0,18.0,72,0.00,,,0.00,VWS V12.07,2013-03-27 08:20:00,
2013-03-27 04:30:00,24.2,16.8,30.16,West,259,11.0,22.0,73,0.00,,,0.00,VWS V12.07,2013-03-27 08:30:00,
2013-03-27 04:40:00,24.2,16.8,30.16,NW,306,10.0,18.0,73,0.00,,,0.00,VWS V12.07,2013-03-27 08:40:00,
2013-03-27 04:50:00,24.1,17.0,30.16,WNW,302,7.0,24.0,74,0.00,,,0.00,VWS V12.07,2013-03-27 08:50:00,
2013-03-27 05:00:00,23.9,16.5,30.15,WNW,294,8.0,22.0,73,0.00,,,0.00,VWS V12.07,2013-03-27 09:00:00,
2013-03-27 05:10:00,23.8,16.4,30.15,NW,324,5.0,17.0,73,0.00,,,0.00,VWS V12.07,2013-03-27 09:10:00,
2013-03-27 05:20:00,23.6,15.6,30.17,WSW,237,5.0,29.0,71,0.00,,,0.00,VWS V12.07,2013-03-27 09:20:00,
2013-03-27 05:30:00,23.6,15.3,30.18,SSW,211,4.0,28.0,70,0.00,,,0.00,VWS V12.07,2013-03-27 09:30:00,
2013-03-27 05:40:00,23.5,15.2,30.18,West,277,6.0,16.0,70,0.00,,,0.00,VWS V12.07,2013-03-27 09:40:00,
2013-03-27 05:50:00,23.3,14.6,30.18,NE,34,5.0,27.0,69,0.00,,,0.00,VWS V12.07,2013-03-27 09:50:00,
2013-03-27 06:00:00,23.3,14.6,30.18,West,268,9.0,23.0,69,0.00,,,0.00,VWS V12.07,2013-03-27 10:00:00,
2013-03-27 06:30:00,23.0,14.0,30.20,WSW,257,13.0,21.0,68,0.00,,,0.00,VWS V12.07,2013-03-27 10:30:00,
2013-03-27 06:40:00,23.0,13.4,30.20,WNW,291,21.0,21.0,66,0.00,,,0.00,VWS V12.07,2013-03-27 10:40:00,
2013-03-27 07:00:00,23.0,13.7,30.21,WNW,286,22.0,22.0,67,0.00,,,0.00,VWS V12.07,2013-03-27 11:00:00,
2013-03-27 07:10:00,23.0,14.0,30.21,WNW,284,5.0,19.0,68,0.00,,,0.00,VWS V12.07,2013-03-27 11:10:00,
2013-03-27 07:20:00,23.0,14.4,30.21,WNW,299,12.0,23.0,69,0.00,,,0.00,VWS V12.07,2013-03-27 11:20:00,
2013-03-27 07:30:00,23.0,14.7,30.22,West,273,8.0,15.0,70,0.00,,,0.00,VWS V12.07,2013-03-27 11:30:00,
2013-03-27 07:40:00,23.2,14.9,30.22,West,272,8.0,19.0,70,0.00,,,0.00,VWS V12.07,2013-03-27 11:40:00,
2013-03-27 07:50:00,23.2,15.2,30.23,NW,309,9.0,18.0,71,0.00,,,0.00,VWS V12.07,2013-03-27 11:50:00,
2013-03-27 08:00:00,23.3,14.6,30.23,WNW,292,17.0,26.0,69,0.00,,,0.00,VWS V12.07,2013-03-27 12:00:00,
2013-03-27 08:10:00,23.3,14.6,30.23,WNW,293,10.0,19.0,69,0.00,,,0.00,VWS V12.07,2013-03-27 12:10:00,
2013-03-27 08:20:00,23.5,14.5,30.23,WNW,303,3.0,20.0,68,0.00,,,0.00,VWS V12.07,2013-03-27 12:20:00,
2013-03-27 08:30:00,23.6,14.6,30.24,West,269,8.0,22.0,68,0.00,,,0.00,VWS V12.07,2013-03-27 12:30:00,
2013-03-27 08:40:00,23.9,15.2,30.24,NW,318,7.0,25.0,69,0.00,,,0.00,VWS V12.07,2013-03-27 12:40:00,
2013-03-27 08:50:00,24.1,15.4,30.24,WSW,246,3.0,17.0,69,0.00,,,0.00,VWS V12.07,2013-03-27 12:50:00,
2013-03-27 09:00:00,24.2,15.5,30.24,SW,232,0.0,19.0,69,0.00,,,0.00,VWS V12.07,2013-03-27 13:00:00,
2013-03-27 09:10:00,24.2,15.5,30.24,WNW,286,9.0,20.0,69,0.00,,,0.00,VWS V12.07,2013-03-27 13:10:00,
2013-03-27 09:20:00,24.2,14.8,30.25,WSW,247,15.0,19.0,67,0.00,,,0.00,VWS V12.07,2013-03-27 13:20:00,
2013-03-27 09:30:00,24.2,14.8,30.25,SW,220,3.0,23.0,67,0.00,,,0.00,VWS V12.07,2013-03-27 13:30:00,
2013-03-27 09:40:00,24.7,15.3,30.25,West,271,5.0,14.0,67,0.00,,,0.00,VWS V12.07,2013-03-27 13:40:00,
2013-03-27 09:50:00,24.8,16.1,30.25,SSW,212,5.0,24.0,69,0.00,,,0.00,VWS V12.07,2013-03-27 13:50:00,
2013-03-27 10:00:00,24.8,16.8,30.25,West,278,5.0,22.0,71,0.00,,,0.00,VWS V12.07,2013-03-27 14:00:00,
2013-03-27 10:10:00,24.8,17.4,30.25,West,260,6.0,21.0,73,0.00,,,0.00,VWS V12.07,2013-03-27 14:10:00,
2013-03-27 10:20:00,24.8,17.7,30.25,SSW,213,11.0,18.0,74,0.00,,,0.00,VWS V12.07,2013-03-27 14:20:00,
2013-03-27 10:30:00,25.0,17.3,30.25,WSW,258,10.0,20.0,72,0.00,,,0.00,VWS V12.07,2013-03-27 14:30:00,
2013-03-27 10:40:00,25.7,16.6,30.25,WNW,287,20.0,21.0,68,0.00,,,0.00,VWS V12.07,2013-03-27 14:40:00,
2013-03-27 10:50:00,26.0,16.2,30.27,West,273,12.0,23.0,66,0.00,,,0.00,VWS V12.07,2013-03-27 14:50:00,
2013-03-27 11:00:00,26.3,16.1,30.27,NW,311,16.0,23.0,65,0.00,,,0.00,VWS V12.07,2013-03-27 15:00:00,
2013-03-27 11:10:00,26.6,16.8,30.27,West,270,11.0,24.0,66,0.00,,,0.00,VWS V12.07,2013-03-27 15:10:00,
2013-03-27 11:20:00,27.0,17.2,30.26,West,270,8.0,16.0,66,0.00,,,0.00,VWS V12.07,2013-03-27 15:20:00,
2013-03-27 11:30:00,27.0,16.8,30.27,West,270,7.0,14.0,65,0.00,,,0.00,VWS V12.07,2013-03-27 15:30:00,
2013-03-27 11:40:00,27.5,16.9,30.27,WNW,292,9.0,20.0,64,0.00,,,0.00,VWS V12.07,2013-03-27 15:40:00,
2013-03-27 11:50:00,28.4,17.4,30.26,NW,315,7.0,18.0,63,0.00,,,0.00,VWS V12.07,2013-03-27 15:50:00,
2013-03-27 12:00:00,28.2,18.0,30.26,West,270,8.0,19.0,65,0.00,,,0.00,VWS V12.07,2013-03-27 16:00:00,
2013-03-27 12:10:00,29.0,18.4,30.26,NW,315,7.0,16.0,64,0.00,,,0.00,VWS V12.07,2013-03-27 16:10:00,
2013-03-27 12:20:00,28.8,18.2,30.27,WNW,292,7.0,17.0,64,0.00,,,0.00,VWS V12.07,2013-03-27 16:20:00,
2013-03-27 12:30:00,29.5,18.5,30.26,NW,315,8.0,17.0,63,0.00,,,0.00,VWS V12.07,2013-03-27 16:30:00,
2013-03-27 12:40:00,29.7,18.7,30.26,NW,315,8.0,19.0,63,0.00,,,0.00,VWS V12.07,2013-03-27 16:40:00,
2013-03-27 12:50:00,29.3,19.4,30.27,NW,315,9.0,21.0,66,0.00,,,0.00,VWS V12.07,2013-03-27 16:50:00,
2013-03-27 13:00:00,29.8,18.4,30.26,NW,315,7.0,19.0,62,0.00,,,0.00,VWS V12.07,2013-03-27 17:00:00,
2013-03-27 13:10:00,29.5,18.8,30.26,WNW,292,7.0,18.0,64,0.01,,,0.01,VWS V12.07,2013-03-27 17:10:00,
2013-03-27 13:20:00,30.0,19.0,30.27,WNW,292,9.0,21.0,63,0.01,,,0.01,VWS V12.07,2013-03-27 17:20:00,
2013-03-27 13:30:00,29.5,19.6,30.26,WNW,292,9.0,23.0,66,0.01,,,0.01,VWS V12.07,2013-03-27 17:30:00,
2013-03-27 13:40:00,29.3,19.4,30.26,West,270,10.0,25.0,66,0.01,,,0.01,VWS V12.07,2013-03-27 17:40:00,
2013-03-27 13:50:00,28.8,19.6,30.26,West,270,7.0,20.0,68,0.01,,,0.01,VWS V12.07,2013-03-27 17:50:00,
2013-03-27 14:00:00,29.7,19.8,30.25,NW,315,5.0,14.0,66,0.01,,,0.01,VWS V12.07,2013-03-27 18:00:00,
2013-03-27 14:10:00,29.7,18.7,30.25,NW,315,8.0,19.0,63,0.01,,,0.01,VWS V12.07,2013-03-27 18:10:00,
2013-03-27 14:20:00,30.6,19.9,30.25,NW,315,6.0,17.0,64,0.00,,,0.01,VWS V12.07,2013-03-27 18:20:00,
2013-03-27 14:30:00,30.6,18.8,30.24,NNW,338,8.0,19.0,61,0.00,,,0.01,VWS V12.07,2013-03-27 18:30:00,
2013-03-27 14:40:00,30.4,18.6,30.24,West,270,10.0,20.0,61,0.00,,,0.01,VWS V12.07,2013-03-27 18:40:00,
2013-03-27 14:50:00,30.6,18.4,30.23,WNW,292,8.0,20.0,60,0.00,,,0.01,VWS V12.07,2013-03-27 18:50:00,
2013-03-27 15:00:00,30.7,20.0,30.23,WNW,292,8.0,16.0,64,0.00,,,0.01,VWS V12.07,2013-03-27 19:00:00,
2013-03-27 15:10:00,31.8,18.3,30.23,NW,315,7.0,17.0,57,0.00,,,0.01,VWS V12.07,2013-03-27 19:10:00,
2013-03-27 15:20:00,31.5,18.4,30.23,WNW,292,8.0,23.0,58,0.00,,,0.01,VWS V12.07,2013-03-27 19:20:00,
2013-03-27 15:30:00,32.1,19.0,30.22,NW,315,7.0,15.0,58,0.00,,,0.01,VWS V12.07,2013-03-27 19:30:00,
2013-03-27 15:40:00,31.8,18.7,30.22,NW,315,8.0,18.0,58,0.00,,,0.01,VWS V12.07,2013-03-27 19:40:00,
2013-03-27 15:50:00,32.2,19.1,30.22,NNW,338,6.0,15.0,58,0.00,,,0.01,VWS V12.07,2013-03-27 19:50:00,
2013-03-27 16:00:00,31.9,18.8,30.22,West,270,7.0,18.0,58,0.00,,,0.01,VWS V12.07,2013-03-27 20:00:00,
2013-03-27 16:10:00,32.1,18.6,30.22,WNW,292,6.0,21.0,57,0.00,,,0.01,VWS V12.07,2013-03-27 20:10:00,
2013-03-27 16:20:00,32.4,19.3,30.21,WNW,292,6.0,16.0,58,0.00,,,0.01,VWS V12.07,2013-03-27 20:20:00,
2013-03-27 16:30:00,32.5,19.4,30.23,NW,315,6.0,16.0,58,0.00,,,0.01,VWS V12.07,2013-03-27 20:30:00,
2013-03-27 16:40:00,32.4,18.9,30.23,NW,315,7.0,22.0,57,0.00,,,0.01,VWS V12.07,2013-03-27 20:40:00,
2013-03-27 16:50:00,32.1,19.0,30.23,WNW,292,7.0,17.0,58,0.00,,,0.01,VWS V12.07,2013-03-27 20:50:00,
2013-03-27 17:00:00,31.6,18.5,30.23,WNW,292,9.0,17.0,58,0.00,,,0.01,VWS V12.07,2013-03-27 21:00:00,
2013-03-27 17:10:00,31.6,19.3,30.23,WNW,292,7.0,15.0,60,0.00,,,0.01,VWS V12.07,2013-03-27 21:10:00,
2013-03-27 17:20:00,31.6,19.3,30.24,West,270,6.0,21.0,60,0.00,,,0.01,VWS V12.07,2013-03-27 21:20:00,
2013-03-27 17:30:00,31.5,19.2,30.24,West,270,5.0,17.0,60,0.00,,,0.01,VWS V12.07,2013-03-27 21:30:00,
2013-03-27 17:40:00,30.9,17.9,30.24,WNW,292,9.0,20.0,58,0.00,,,0.01,VWS V12.07,2013-03-27 21:40:00,
2013-03-27 17:50:00,30.7,18.5,30.25,WNW,292,7.0,17.0,60,0.00,,,0.01,VWS V12.07,2013-03-27 21:50:00,
2013-03-27 18:00:00,30.3,18.5,30.26,West,270,6.0,15.0,61,0.00,,,0.01,VWS V12.07,2013-03-27 22:00:00,
2013-03-27 18:10:00,29.5,18.1,30.26,West,270,8.0,24.0,62,0.00,,,0.01,VWS V12.07,2013-03-27 22:10:00,
2013-03-27 18:20:00,29.3,18.3,30.26,NW,315,6.0,15.0,63,0.00,,,0.01,VWS V12.07,2013-03-27 22:20:00,
2013-03-27 18:30:00,29.1,18.5,30.26,NW,315,5.0,18.0,64,0.00,,,0.01,VWS V12.07,2013-03-27 22:30:00,
2013-03-27 18:40:00,29.1,18.1,30.26,WNW,292,8.0,21.0,63,0.00,,,0.01,VWS V12.07,2013-03-27 22:40:00,
2013-03-27 18:50:00,29.0,18.0,30.26,WNW,292,6.0,14.0,63,0.00,,,0.01,VWS V12.07,2013-03-27 22:50:00,
2013-03-27 19:00:00,28.8,17.8,30.25,WNW,292,6.0,20.0,63,0.00,,,0.01,VWS V12.07,2013-03-27 23:00:00,
2013-03-27 19:10:00,28.7,17.7,30.25,WNW,292,4.0,17.0,63,0.00,,,0.01,VWS V12.07,2013-03-27 23:10:00,
2013-03-27 19:20:00,28.5,17.1,30.26,NNW,338,4.0,12.0,62,0.00,,,0.01,VWS V12.07,2013-03-27 23:20:00,
2013-03-27 19:30:00,28.5,18.6,30.26,WNW,292,5.0,14.0,66,0.00,,,0.01,VWS V12.07,2013-03-27 23:30:00,
2013-03-27 19:40:00,28.4,16.7,30.26,WNW,292,5.0,13.0,61,0.00,,,0.01,VWS V12.07,2013-03-27 23:40:00,
2013-03-27 19:50:00,28.4,17.1,30.27,NW,315,5.0,16.0,62,0.00,,,0.01,VWS V12.07,2013-03-27 23:50:00,
2013-03-27 20:00:00,28.2,16.9,30.27,NW,315,5.0,16.0,62,0.00,,,0.01,VWS V12.07,2013-03-28 00:00:00,
2013-03-27 20:10:00,28.2,16.9,30.27,WNW,292,4.0,12.0,62,0.00,,,0.01,VWS V12.07,2013-03-28 00:10:00,
2013-03-27 20:20:00,28.1,17.1,30.26,West,270,5.0,15.0,63,0.00,,,0.01,VWS V12.07,2013-03-28 00:20:00,
2013-03-27 20:30:00,28.2,17.6,30.26,WNW,292,5.0,14.0,64,0.00,,,0.01,VWS V12.07,2013-03-28 00:30:00,
2013-03-27 20:40:00,28.1,17.5,30.26,West,270,6.0,15.0,64,0.00,,,0.01,VWS V12.07,2013-03-28 00:40:00,
2013-03-27 20:50:00,27.9,17.3,30.26,West,270,5.0,14.0,64,0.00,,,0.01,VWS V12.07,2013-03-28 00:50:00,
2013-03-27 21:00:00,28.1,17.5,30.26,West,270,6.0,14.0,64,0.00,,,0.01,VWS V12.07,2013-03-28 01:00:00,
2013-03-27 21:10:00,28.1,17.5,30.26,West,270,9.0,20.0,64,0.00,,,0.01,VWS V12.07,2013-03-28 01:10:00,
2013-03-27 21:20:00,27.9,17.7,30.26,WSW,248,6.0,13.0,65,0.00,,,0.01,VWS V12.07,2013-03-28 01:20:00,
2013-03-27 21:30:00,27.8,17.6,30.26,WNW,292,5.0,13.0,65,0.00,,,0.01,VWS V12.07,2013-03-28 01:30:00,
2013-03-27 21:40:00,27.6,17.4,30.26,WSW,248,6.0,14.0,65,0.00,,,0.01,VWS V12.07,2013-03-28 01:40:00,
2013-03-27 21:50:00,27.6,17.4,30.26,West,270,5.0,13.0,65,0.00,,,0.01,VWS V12.07,2013-03-28 01:50:00,
2013-03-27 22:00:00,27.6,17.0,30.26,WNW,292,6.0,12.0,64,0.00,,,0.01,VWS V12.07,2013-03-28 02:00:00,
2013-03-27 22:10:00,27.5,16.6,30.26,West,270,4.0,11.0,63,0.00,,,0.01,VWS V12.07,2013-03-28 02:10:00,
2013-03-27 22:20:00,27.3,16.8,30.25,WSW,248,4.0,14.0,64,0.00,,,0.01,VWS V12.07,2013-03-28 02:20:00,
2013-03-27 22:30:00,27.0,16.8,30.25,West,270,4.0,12.0,65,0.00,,,0.01,VWS V12.07,2013-03-28 02:30:00,
2013-03-27 22:40:00,26.9,16.7,30.25,SW,225,3.0,12.0,65,0.00,,,0.01,VWS V12.07,2013-03-28 02:40:00,
2013-03-27 22:50:00,26.7,16.5,30.26,SW,225,3.0,8.0,65,0.00,,,0.01,VWS V12.07,2013-03-28 02:50:00,
2013-03-27 23:00:00,26.9,16.7,30.26,SW,225,5.0,13.0,65,0.00,,,0.01,VWS V12.07,2013-03-28 03:00:00,
2013-03-27 23:10:00,26.7,16.5,30.26,WSW,248,4.0,12.0,65,0.00,,,0.01,VWS V12.07,2013-03-28 03:10:00,
2013-03-27 23:20:00,26.7,16.5,30.24,SSW,202,4.0,10.0,65,0.00,,,0.01,VWS V12.07,2013-03-28 03:20:00,
2013-03-27 23:30:00,26.6,16.4,30.25,SSW,202,3.0,9.0,65,0.00,,,0.01,VWS V12.07,2013-03-28 03:30:00,
2013-03-27 23:40:00,26.4,17.6,30.25,South,180,5.0,10.0,69,0.00,,,0.01,VWS V12.07,2013-03-28 03:40:00,
2013-03-27 23:50:00,26.7,16.2,30.24,SW,225,5.0,15.0,64,0.00,,,0.01,VWS V12.07,2013-03-28 03:50:00,